Year,Month,Day,Hour,Minute,Value (Times are PST for temperature in C)
2018,04,23,00,00,5.10
2018,04,23,00,01,5.00
2018,04,23,00,02,5.00
2018,04,23,00,03,5.00
2018,04,23,00,04,4.90
2018,04,23,00,05,4.90
2018,04,23,00,06,4.90
2018,04,23,00,07,4.90
2018,04,23,00,08,4.90
2018,04,23,00,09,4.90
2018,04,23,00,10,4.80
2018,04,23,00,11,4.80
2018,04,23,00,12,4.80
2018,04,23,00,13,4.80
2018,04,23,00,14,4.80
2018,04,23,00,15,4.80
2018,04,23,00,16,4.80
2018,04,23,00,17,4.80
2018,04,23,00,18,4.70
2018,04,23,00,19,4.70
2018,04,23,00,20,4.70
2018,04,23,00,21,4.70
2018,04,23,00,22,4.70
2018,04,23,00,23,4.70
2018,04,23,00,24,4.70
2018,04,23,00,25,4.70
2018,04,23,00,26,4.70
2018,04,23,00,27,4.80
2018,04,23,00,28,4.80
2018,04,23,00,29,4.80
2018,04,23,00,30,4.80
2018,04,23,00,31,4.80
2018,04,23,00,32,4.80
2018,04,23,00,33,4.70
2018,04,23,00,34,4.70
2018,04,23,00,35,4.70
2018,04,23,00,36,4.70
2018,04,23,00,37,4.70
2018,04,23,00,38,4.70
2018,04,23,00,39,4.70
2018,04,23,00,40,4.70
2018,04,23,00,41,4.70
2018,04,23,00,42,4.70
2018,04,23,00,43,4.70
2018,04,23,00,44,4.70
2018,04,23,00,45,4.70
2018,04,23,00,46,4.70
2018,04,23,00,47,4.60
2018,04,23,00,48,4.60
2018,04,23,00,49,4.60
2018,04,23,00,50,4.60
2018,04,23,00,51,4.60
2018,04,23,00,52,4.50
2018,04,23,00,53,4.50
2018,04,23,00,54,4.50
2018,04,23,00,55,4.50
2018,04,23,00,56,4.40
2018,04,23,00,57,4.40
2018,04,23,00,58,4.40
2018,04,23,00,59,4.40
2018,04,23,01,00,4.40
2018,04,23,01,01,4.30
2018,04,23,01,02,4.30
2018,04,23,01,03,4.30
2018,04,23,01,04,4.30
2018,04,23,01,05,4.30
2018,04,23,01,06,4.20
2018,04,23,01,07,4.20
2018,04,23,01,08,4.20
2018,04,23,01,09,4.20
2018,04,23,01,10,4.20
2018,04,23,01,11,4.20
2018,04,23,01,12,4.20
2018,04,23,01,13,4.20
2018,04,23,01,14,4.20
2018,04,23,01,15,4.20
2018,04,23,01,16,4.20
2018,04,23,01,17,4.20
2018,04,23,01,18,4.20
2018,04,23,01,19,4.20
2018,04,23,01,20,4.10
2018,04,23,01,21,4.10
2018,04,23,01,22,4.10
2018,04,23,01,23,4.10
2018,04,23,01,24,4.10
2018,04,23,01,25,4.10
2018,04,23,01,26,4.10
2018,04,23,01,27,4.10
2018,04,23,01,28,4.10
2018,04,23,01,29,4.10
2018,04,23,01,30,4.10
2018,04,23,01,31,4.00
2018,04,23,01,32,4.00
2018,04,23,01,33,4.00
2018,04,23,01,34,4.00
2018,04,23,01,35,4.00
2018,04,23,01,36,4.00
2018,04,23,01,37,4.10
2018,04,23,01,38,4.10
2018,04,23,01,39,4.10
2018,04,23,01,40,4.10
2018,04,23,01,41,4.10
2018,04,23,01,42,4.20
2018,04,23,01,43,4.20
2018,04,23,01,44,4.10
2018,04,23,01,45,4.10
2018,04,23,01,46,4.10
2018,04,23,01,47,4.10
2018,04,23,01,48,4.00
2018,04,23,01,49,4.00
2018,04,23,01,50,4.00
2018,04,23,01,51,3.90
2018,04,23,01,52,3.90
2018,04,23,01,53,3.90
2018,04,23,01,54,3.90
2018,04,23,01,55,3.90
2018,04,23,01,56,3.90
2018,04,23,01,57,3.90
2018,04,23,01,58,3.90
2018,04,23,01,59,3.80
2018,04,23,02,00,3.80
2018,04,23,02,01,3.80
2018,04,23,02,02,3.80
2018,04,23,02,03,3.80
2018,04,23,02,04,3.80
2018,04,23,02,05,3.80
2018,04,23,02,06,3.80
2018,04,23,02,07,3.80
2018,04,23,02,08,3.80
2018,04,23,02,09,3.80
2018,04,23,02,10,3.80
2018,04,23,02,11,3.90
2018,04,23,02,12,3.90
2018,04,23,02,13,3.90
2018,04,23,02,14,3.90
2018,04,23,02,15,4.00
2018,04,23,02,16,4.00
2018,04,23,02,17,4.00
2018,04,23,02,18,4.00
2018,04,23,02,19,3.90
2018,04,23,02,20,3.90
2018,04,23,02,21,3.90
2018,04,23,02,22,3.90
2018,04,23,02,23,3.90
2018,04,23,02,24,3.90
2018,04,23,02,25,3.90
2018,04,23,02,26,3.80
2018,04,23,02,27,3.80
2018,04,23,02,28,3.80
2018,04,23,02,29,3.80
2018,04,23,02,30,3.80
2018,04,23,02,31,3.80
2018,04,23,02,32,3.70
2018,04,23,02,33,3.70
2018,04,23,02,34,3.70
2018,04,23,02,35,3.70
2018,04,23,02,36,3.70
2018,04,23,02,37,3.70
2018,04,23,02,38,3.70
2018,04,23,02,39,3.70
2018,04,23,02,40,3.70
2018,04,23,02,41,3.70
2018,04,23,02,42,3.60
2018,04,23,02,43,3.60
2018,04,23,02,44,3.60
2018,04,23,02,45,3.60
2018,04,23,02,46,3.60
2018,04,23,02,47,3.60
2018,04,23,02,48,3.60
2018,04,23,02,49,3.50
2018,04,23,02,50,3.60
2018,04,23,02,51,3.60
2018,04,23,02,52,3.60
2018,04,23,02,53,3.60
2018,04,23,02,54,3.60
2018,04,23,02,55,3.60
2018,04,23,02,56,3.60
2018,04,23,02,57,3.60
2018,04,23,02,58,3.60
2018,04,23,02,59,3.60
2018,04,23,03,00,3.60
2018,04,23,03,01,3.60
2018,04,23,03,02,3.60
2018,04,23,03,03,3.60
2018,04,23,03,04,3.60
2018,04,23,03,05,3.70
2018,04,23,03,06,3.70
2018,04,23,03,07,3.60
2018,04,23,03,08,3.60
2018,04,23,03,09,3.60
2018,04,23,03,10,3.70
2018,04,23,03,11,3.70
2018,04,23,03,12,3.70
2018,04,23,03,13,3.70
2018,04,23,03,14,3.60
2018,04,23,03,15,3.60
2018,04,23,03,16,3.60
2018,04,23,03,17,3.50
2018,04,23,03,18,3.50
2018,04,23,03,19,3.50
2018,04,23,03,20,3.40
2018,04,23,03,21,3.40
2018,04,23,03,22,3.40
2018,04,23,03,23,3.40
2018,04,23,03,24,3.30
2018,04,23,03,25,3.30
2018,04,23,03,26,3.30
2018,04,23,03,27,3.30
2018,04,23,03,28,3.30
2018,04,23,03,29,3.30
2018,04,23,03,30,3.30
2018,04,23,03,31,3.30
2018,04,23,03,32,3.30
2018,04,23,03,33,3.20
2018,04,23,03,34,3.20
2018,04,23,03,35,3.20
2018,04,23,03,36,3.20
2018,04,23,03,37,3.20
2018,04,23,03,38,3.20
2018,04,23,03,39,3.20
2018,04,23,03,40,3.20
2018,04,23,03,41,3.20
2018,04,23,03,42,3.30
2018,04,23,03,43,3.30
2018,04,23,03,44,3.30
2018,04,23,03,45,3.30
2018,04,23,03,46,3.30
2018,04,23,03,47,3.30
2018,04,23,03,48,3.30
2018,04,23,03,49,3.30
2018,04,23,03,50,3.30
2018,04,23,03,51,3.30
2018,04,23,03,52,3.30
2018,04,23,03,53,3.30
2018,04,23,03,54,3.30
2018,04,23,03,55,3.20
2018,04,23,03,56,3.20
2018,04,23,03,57,3.20
2018,04,23,03,58,3.20
2018,04,23,03,59,3.20
2018,04,23,04,00,3.20
2018,04,23,04,01,3.10
2018,04,23,04,02,3.10
2018,04,23,04,03,3.10
2018,04,23,04,04,3.10
2018,04,23,04,05,3.10
2018,04,23,04,06,3.10
2018,04,23,04,07,3.10
2018,04,23,04,08,3.10
2018,04,23,04,09,3.20
2018,04,23,04,10,3.20
2018,04,23,04,11,3.20
2018,04,23,04,12,3.20
2018,04,23,04,13,3.20
2018,04,23,04,14,3.20
2018,04,23,04,15,3.20
2018,04,23,04,16,3.20
2018,04,23,04,17,3.20
2018,04,23,04,18,3.20
2018,04,23,04,19,3.20
2018,04,23,04,20,3.20
2018,04,23,04,21,3.20
2018,04,23,04,22,3.20
2018,04,23,04,23,3.20
2018,04,23,04,24,3.20
2018,04,23,04,25,3.20
2018,04,23,04,26,3.20
2018,04,23,04,27,3.20
2018,04,23,04,28,3.20
2018,04,23,04,29,3.10
2018,04,23,04,30,3.20
2018,04,23,04,31,3.10
2018,04,23,04,32,3.10
2018,04,23,04,33,3.10
2018,04,23,04,34,3.10
2018,04,23,04,35,3.10
2018,04,23,04,36,3.20
2018,04,23,04,37,3.20
2018,04,23,04,38,3.20
2018,04,23,04,39,3.10
2018,04,23,04,40,3.10
2018,04,23,04,41,3.00
2018,04,23,04,42,2.90
2018,04,23,04,43,2.90
2018,04,23,04,44,2.90
2018,04,23,04,45,2.90
2018,04,23,04,46,2.80
2018,04,23,04,47,2.80
2018,04,23,04,48,2.80
2018,04,23,04,49,2.80
2018,04,23,04,50,2.80
2018,04,23,04,51,2.80
2018,04,23,04,52,2.90
2018,04,23,04,53,2.90
2018,04,23,04,54,3.00
2018,04,23,04,55,3.10
2018,04,23,04,56,3.10
2018,04,23,04,57,3.20
2018,04,23,04,58,3.20
2018,04,23,04,59,3.30
2018,04,23,05,00,3.30
2018,04,23,05,01,3.40
2018,04,23,05,02,3.40
2018,04,23,05,03,3.40
2018,04,23,05,04,3.50
2018,04,23,05,05,3.50
2018,04,23,05,06,3.60
2018,04,23,05,07,3.60
2018,04,23,05,08,3.70
2018,04,23,05,09,3.70
2018,04,23,05,10,3.70
2018,04,23,05,11,3.60
2018,04,23,05,12,3.60
2018,04,23,05,13,3.60
2018,04,23,05,14,3.60
2018,04,23,05,15,3.60
2018,04,23,05,16,3.50
2018,04,23,05,17,3.40
2018,04,23,05,18,3.40
2018,04,23,05,19,3.30
2018,04,23,05,20,3.20
2018,04,23,05,21,3.20
2018,04,23,05,22,3.10
2018,04,23,05,23,3.10
2018,04,23,05,24,3.10
2018,04,23,05,25,3.10
2018,04,23,05,26,3.10
2018,04,23,05,27,3.10
2018,04,23,05,28,3.10
2018,04,23,05,29,3.00
2018,04,23,05,30,3.00
2018,04,23,05,31,3.00
2018,04,23,05,32,2.90
2018,04,23,05,33,2.90
2018,04,23,05,34,2.90
2018,04,23,05,35,2.90
2018,04,23,05,36,2.90
2018,04,23,05,37,2.90
2018,04,23,05,38,2.90
2018,04,23,05,39,2.90
2018,04,23,05,40,2.90
2018,04,23,05,41,2.90
2018,04,23,05,42,2.90
2018,04,23,05,43,2.90
2018,04,23,05,44,2.90
2018,04,23,05,45,2.90
2018,04,23,05,46,2.90
2018,04,23,05,47,2.90
2018,04,23,05,48,2.90
2018,04,23,05,49,2.90
2018,04,23,05,50,2.90
2018,04,23,05,51,2.90
2018,04,23,05,52,2.90
2018,04,23,05,53,2.90
2018,04,23,05,54,2.80
2018,04,23,05,55,2.80
2018,04,23,05,56,2.80
2018,04,23,05,57,2.80
2018,04,23,05,58,2.80
2018,04,23,05,59,2.80
2018,04,23,06,00,2.80
2018,04,23,06,01,2.70
2018,04,23,06,02,2.70
2018,04,23,06,03,2.70
2018,04,23,06,04,2.60
2018,04,23,06,05,2.60
2018,04,23,06,06,2.60
2018,04,23,06,07,2.50
2018,04,23,06,08,2.50
2018,04,23,06,09,2.50
2018,04,23,06,10,2.40
2018,04,23,06,11,2.40
2018,04,23,06,12,2.50
2018,04,23,06,13,2.50
2018,04,23,06,14,2.50
2018,04,23,06,15,2.50
2018,04,23,06,16,2.60
2018,04,23,06,17,2.60
2018,04,23,06,18,2.70
2018,04,23,06,19,2.70
2018,04,23,06,20,2.70
2018,04,23,06,21,2.70
2018,04,23,06,22,2.70
2018,04,23,06,23,2.70
2018,04,23,06,24,2.70
2018,04,23,06,25,2.70
2018,04,23,06,26,2.80
2018,04,23,06,27,2.80
2018,04,23,06,28,2.80
2018,04,23,06,29,2.90
2018,04,23,06,30,2.90
2018,04,23,06,31,2.90
2018,04,23,06,32,3.00
2018,04,23,06,33,3.00
2018,04,23,06,34,3.10
2018,04,23,06,35,3.10
2018,04,23,06,36,3.20
2018,04,23,06,37,3.20
2018,04,23,06,38,3.30
2018,04,23,06,39,3.30
2018,04,23,06,40,3.40
2018,04,23,06,41,3.40
2018,04,23,06,42,3.50
2018,04,23,06,43,3.50
2018,04,23,06,44,3.50
2018,04,23,06,45,3.60
2018,04,23,06,46,3.60
2018,04,23,06,47,3.60
2018,04,23,06,48,3.60
2018,04,23,06,49,3.60
2018,04,23,06,50,3.70
2018,04,23,06,51,3.70
2018,04,23,06,52,3.70
2018,04,23,06,53,3.70
2018,04,23,06,54,3.70
2018,04,23,06,55,3.70
2018,04,23,06,56,3.80
2018,04,23,06,57,3.80
2018,04,23,06,58,3.80
2018,04,23,06,59,3.80
2018,04,23,07,00,3.80
2018,04,23,07,01,3.80
2018,04,23,07,02,3.80
2018,04,23,07,03,3.90
2018,04,23,07,04,3.90
2018,04,23,07,05,3.90
2018,04,23,07,06,3.90
2018,04,23,07,07,4.00
2018,04,23,07,08,4.00
2018,04,23,07,09,4.10
2018,04,23,07,10,4.10
2018,04,23,07,11,4.10
2018,04,23,07,12,4.10
2018,04,23,07,13,4.10
2018,04,23,07,14,4.20
2018,04,23,07,15,4.20
2018,04,23,07,16,4.20
2018,04,23,07,17,4.20
2018,04,23,07,18,4.30
2018,04,23,07,19,4.30
2018,04,23,07,20,4.30
2018,04,23,07,21,4.30
2018,04,23,07,22,4.40
2018,04,23,07,23,4.40
2018,04,23,07,24,4.50
2018,04,23,07,25,4.50
2018,04,23,07,26,4.60
2018,04,23,07,27,4.70
2018,04,23,07,28,4.80
2018,04,23,07,29,4.80
2018,04,23,07,30,4.90
2018,04,23,07,31,5.00
2018,04,23,07,32,5.10
2018,04,23,07,33,5.20
2018,04,23,07,34,5.30
2018,04,23,07,35,5.30
2018,04,23,07,36,5.40
2018,04,23,07,37,5.50
2018,04,23,07,38,5.60
2018,04,23,07,39,5.70
2018,04,23,07,40,5.80
2018,04,23,07,41,5.90
2018,04,23,07,42,6.00
2018,04,23,07,43,6.20
2018,04,23,07,44,6.30
2018,04,23,07,45,6.40
2018,04,23,07,46,6.50
2018,04,23,07,47,6.60
2018,04,23,07,48,6.80
2018,04,23,07,49,6.90
2018,04,23,07,50,7.00
2018,04,23,07,51,7.10
2018,04,23,07,52,7.20
2018,04,23,07,53,7.20
2018,04,23,07,54,7.30
2018,04,23,07,55,7.40
2018,04,23,07,56,7.40
2018,04,23,07,57,7.50
2018,04,23,07,58,7.50
2018,04,23,07,59,7.60
2018,04,23,08,00,7.70
2018,04,23,08,01,7.80
2018,04,23,08,02,7.90
2018,04,23,08,03,7.90
2018,04,23,08,04,8.00
2018,04,23,08,05,8.10
2018,04,23,08,06,8.20
2018,04,23,08,07,8.20
2018,04,23,08,08,8.30
2018,04,23,08,09,8.30
2018,04,23,08,10,8.40
2018,04,23,08,11,8.40
2018,04,23,08,12,8.50
2018,04,23,08,13,8.60
2018,04,23,08,14,8.60
2018,04,23,08,15,8.70
2018,04,23,08,16,8.70
2018,04,23,08,17,8.80
2018,04,23,08,18,8.80
2018,04,23,08,19,8.90
2018,04,23,08,20,9.00
2018,04,23,08,21,9.00
2018,04,23,08,22,9.20
2018,04,23,08,23,9.30
2018,04,23,08,24,9.40
2018,04,23,08,25,9.40
2018,04,23,08,26,9.50
2018,04,23,08,27,9.60
2018,04,23,08,28,9.70
2018,04,23,08,29,9.70
2018,04,23,08,30,9.80
2018,04,23,08,31,9.90
2018,04,23,08,32,9.90
2018,04,23,08,33,9.90
2018,04,23,08,34,10.00
2018,04,23,08,35,10.00
2018,04,23,08,36,10.10
2018,04,23,08,37,10.10
2018,04,23,08,38,10.20
2018,04,23,08,39,10.20
2018,04,23,08,40,10.20
2018,04,23,08,41,10.20
2018,04,23,08,42,10.20
2018,04,23,08,43,10.10
2018,04,23,08,44,10.10
2018,04,23,08,45,10.10
2018,04,23,08,46,10.00
2018,04,23,08,47,10.00
2018,04,23,08,48,10.00
2018,04,23,08,49,10.00
2018,04,23,08,50,10.00
2018,04,23,08,51,9.90
2018,04,23,08,52,9.90
2018,04,23,08,53,9.90
2018,04,23,08,54,9.90
2018,04,23,08,55,9.90
2018,04,23,08,56,9.90
2018,04,23,08,57,9.90
2018,04,23,08,58,9.90
2018,04,23,08,59,9.90
2018,04,23,09,00,10.00
2018,04,23,09,01,10.00
2018,04,23,09,02,10.10
2018,04,23,09,03,10.10
2018,04,23,09,04,10.20
2018,04,23,09,05,10.20
2018,04,23,09,06,10.20
2018,04,23,09,07,10.20
2018,04,23,09,08,10.30
2018,04,23,09,09,10.30
2018,04,23,09,10,10.40
2018,04,23,09,11,10.50
2018,04,23,09,12,10.60
2018,04,23,09,13,10.60
2018,04,23,09,14,10.60
2018,04,23,09,15,10.70
2018,04,23,09,16,10.80
2018,04,23,09,17,10.80
2018,04,23,09,18,10.90
2018,04,23,09,19,11.00
2018,04,23,09,20,11.10
2018,04,23,09,21,11.10
2018,04,23,09,22,11.20
2018,04,23,09,23,11.20
2018,04,23,09,24,11.30
2018,04,23,09,25,11.30
2018,04,23,09,26,11.40
2018,04,23,09,27,11.50
2018,04,23,09,28,11.60
2018,04,23,09,29,11.60
2018,04,23,09,30,11.70
2018,04,23,09,31,11.70
2018,04,23,09,32,11.80
2018,04,23,09,33,11.80
2018,04,23,09,34,11.90
2018,04,23,09,35,11.90
2018,04,23,09,36,12.00
2018,04,23,09,37,12.10
2018,04,23,09,38,12.10
2018,04,23,09,39,12.20
2018,04,23,09,40,12.20
2018,04,23,09,41,12.20
2018,04,23,09,42,12.20
2018,04,23,09,43,12.20
2018,04,23,09,44,12.20
2018,04,23,09,45,12.20
2018,04,23,09,46,12.20
2018,04,23,09,47,12.20
2018,04,23,09,48,12.20
2018,04,23,09,49,12.20
2018,04,23,09,50,12.30
2018,04,23,09,51,12.40
2018,04,23,09,52,12.40
2018,04,23,09,53,12.50
2018,04,23,09,54,12.60
2018,04,23,09,55,12.70
2018,04,23,09,56,12.80
2018,04,23,09,57,12.90
2018,04,23,09,58,13.10
2018,04,23,09,59,13.20
2018,04,23,10,00,13.30
2018,04,23,10,01,13.30
2018,04,23,10,02,13.40
2018,04,23,10,03,13.40
2018,04,23,10,04,13.50
2018,04,23,10,05,13.50
2018,04,23,10,06,13.60
2018,04,23,10,07,13.60
2018,04,23,10,08,13.50
2018,04,23,10,09,13.50
2018,04,23,10,10,13.50
2018,04,23,10,11,13.50
2018,04,23,10,12,13.60
2018,04,23,10,13,13.50
2018,04,23,10,14,13.40
2018,04,23,10,15,13.20
2018,04,23,10,16,13.10
2018,04,23,10,17,12.90
2018,04,23,10,18,12.70
2018,04,23,10,19,12.60
2018,04,23,10,20,12.60
2018,04,23,10,21,12.60
2018,04,23,10,22,12.60
2018,04,23,10,23,12.60
2018,04,23,10,24,12.70
2018,04,23,10,25,12.70
2018,04,23,10,26,12.80
2018,04,23,10,27,12.80
2018,04,23,10,28,12.80
2018,04,23,10,29,12.80
2018,04,23,10,30,12.80
2018,04,23,10,31,12.90
2018,04,23,10,32,12.90
2018,04,23,10,33,12.90
2018,04,23,10,34,12.90
2018,04,23,10,35,13.00
2018,04,23,10,36,13.10
2018,04,23,10,37,13.10
2018,04,23,10,38,13.20
2018,04,23,10,39,13.20
2018,04,23,10,40,13.20
2018,04,23,10,41,13.10
2018,04,23,10,42,13.10
2018,04,23,10,43,13.10
2018,04,23,10,44,13.10
2018,04,23,10,45,13.10
2018,04,23,10,46,13.10
2018,04,23,10,47,13.10
2018,04,23,10,48,13.10
2018,04,23,10,49,13.10
2018,04,23,10,50,13.10
2018,04,23,10,51,13.10
2018,04,23,10,52,13.20
2018,04,23,10,53,13.20
2018,04,23,10,54,13.20
2018,04,23,10,55,13.20
2018,04,23,10,56,13.20
2018,04,23,10,57,13.20
2018,04,23,10,58,13.40
2018,04,23,10,59,13.40
2018,04,23,11,00,13.40
2018,04,23,11,01,13.40
2018,04,23,11,02,13.50
2018,04,23,11,03,13.50
2018,04,23,11,04,13.60
2018,04,23,11,05,13.70
2018,04,23,11,06,13.70
2018,04,23,11,07,13.70
2018,04,23,11,08,13.60
2018,04,23,11,09,13.60
2018,04,23,11,10,13.60
2018,04,23,11,11,13.60
2018,04,23,11,12,13.70
2018,04,23,11,13,13.80
2018,04,23,11,14,13.90
2018,04,23,11,15,14.10
2018,04,23,11,16,14.20
2018,04,23,11,17,14.30
2018,04,23,11,18,14.40
2018,04,23,11,19,14.30
2018,04,23,11,20,14.30
2018,04,23,11,21,14.20
2018,04,23,11,22,14.10
2018,04,23,11,23,14.10
2018,04,23,11,24,14.00
2018,04,23,11,25,14.00
2018,04,23,11,26,13.90
2018,04,23,11,27,13.80
2018,04,23,11,28,13.80
2018,04,23,11,29,13.80
2018,04,23,11,30,13.80
2018,04,23,11,31,13.90
2018,04,23,11,32,13.90
2018,04,23,11,33,14.00
2018,04,23,11,34,14.10
2018,04,23,11,35,14.20
2018,04,23,11,36,14.30
2018,04,23,11,37,14.40
2018,04,23,11,38,14.50
2018,04,23,11,39,14.60
2018,04,23,11,40,14.60
2018,04,23,11,41,14.70
2018,04,23,11,42,14.70
2018,04,23,11,43,14.80
2018,04,23,11,44,14.80
2018,04,23,11,45,14.70
2018,04,23,11,46,14.50
2018,04,23,11,47,14.40
2018,04,23,11,48,14.30
2018,04,23,11,49,14.30
2018,04,23,11,50,14.30
2018,04,23,11,51,14.50
2018,04,23,11,52,14.70
2018,04,23,11,53,15.00
2018,04,23,11,54,15.00
2018,04,23,11,55,15.00
2018,04,23,11,56,15.00
2018,04,23,11,57,15.10
2018,04,23,11,58,15.10
2018,04,23,11,59,15.00
2018,04,23,12,00,15.00
2018,04,23,12,01,15.00
2018,04,23,12,02,15.00
2018,04,23,12,03,15.00
2018,04,23,12,04,15.10
2018,04,23,12,05,15.00
2018,04,23,12,06,15.00
2018,04,23,12,07,15.00
2018,04,23,12,08,15.00
2018,04,23,12,09,15.10
2018,04,23,12,10,15.20
2018,04,23,12,11,15.20
2018,04,23,12,12,15.20
2018,04,23,12,13,15.20
2018,04,23,12,14,15.20
2018,04,23,12,15,15.10
2018,04,23,12,16,15.20
2018,04,23,12,17,15.10
2018,04,23,12,18,15.00
2018,04,23,12,19,15.00
2018,04,23,12,20,15.00
2018,04,23,12,21,15.00
2018,04,23,12,22,15.10
2018,04,23,12,23,15.10
2018,04,23,12,24,15.20
2018,04,23,12,25,15.20
2018,04,23,12,26,15.00
2018,04,23,12,27,15.00
2018,04,23,12,28,15.10
2018,04,23,12,29,15.20
2018,04,23,12,30,15.40
2018,04,23,12,31,15.60
2018,04,23,12,32,15.70
2018,04,23,12,33,15.80
2018,04,23,12,34,15.80
2018,04,23,12,35,15.70
2018,04,23,12,36,15.80
2018,04,23,12,37,15.90
2018,04,23,12,38,16.00
2018,04,23,12,39,16.00
2018,04,23,12,40,16.00
2018,04,23,12,41,16.10
2018,04,23,12,42,16.10
2018,04,23,12,43,16.10
2018,04,23,12,44,15.90
2018,04,23,12,45,15.90
2018,04,23,12,46,15.80
2018,04,23,12,47,15.80
2018,04,23,12,48,15.80
2018,04,23,12,49,15.70
2018,04,23,12,50,15.80
2018,04,23,12,51,15.80
2018,04,23,12,52,15.80
2018,04,23,12,53,15.80
2018,04,23,12,54,15.80
2018,04,23,12,55,15.80
2018,04,23,12,56,15.80
2018,04,23,12,57,15.80
2018,04,23,12,58,15.90
2018,04,23,12,59,15.90
2018,04,23,13,00,16.00
2018,04,23,13,01,16.00
2018,04,23,13,02,16.10
2018,04,23,13,03,16.30
2018,04,23,13,04,16.40
2018,04,23,13,05,16.40
2018,04,23,13,06,16.40
2018,04,23,13,07,16.40
2018,04,23,13,08,16.30
2018,04,23,13,09,16.30
2018,04,23,13,10,16.30
2018,04,23,13,11,16.30
2018,04,23,13,12,16.30
2018,04,23,13,13,16.30
2018,04,23,13,14,16.30
2018,04,23,13,15,16.30
2018,04,23,13,16,16.30
2018,04,23,13,17,16.30
2018,04,23,13,18,16.30
2018,04,23,13,19,16.30
2018,04,23,13,20,16.30
2018,04,23,13,21,16.40
2018,04,23,13,22,16.40
2018,04,23,13,23,16.40
2018,04,23,13,24,16.50
2018,04,23,13,25,16.50
2018,04,23,13,26,16.40
2018,04,23,13,27,16.40
2018,04,23,13,28,16.40
2018,04,23,13,29,16.30
2018,04,23,13,30,16.30
2018,04,23,13,31,16.30
2018,04,23,13,32,16.30
2018,04,23,13,33,16.40
2018,04,23,13,34,16.40
2018,04,23,13,35,16.40
2018,04,23,13,36,16.40
2018,04,23,13,37,16.50
2018,04,23,13,38,16.60
2018,04,23,13,39,16.60
2018,04,23,13,40,16.80
2018,04,23,13,41,16.90
2018,04,23,13,42,17.10
2018,04,23,13,43,17.10
2018,04,23,13,44,17.00
2018,04,23,13,45,17.10
2018,04,23,13,46,17.10
2018,04,23,13,47,17.10
2018,04,23,13,48,17.00
2018,04,23,13,49,16.90
2018,04,23,13,50,16.90
2018,04,23,13,51,16.90
2018,04,23,13,52,16.90
2018,04,23,13,53,16.90
2018,04,23,13,54,16.90
2018,04,23,13,55,16.90
2018,04,23,13,56,16.70
2018,04,23,13,57,16.70
2018,04,23,13,58,16.60
2018,04,23,13,59,16.50
2018,04,23,14,00,16.60
2018,04,23,14,01,16.60
2018,04,23,14,02,16.50
2018,04,23,14,03,16.50
2018,04,23,14,04,16.50
2018,04,23,14,05,16.60
2018,04,23,14,06,16.50
2018,04,23,14,07,16.40
2018,04,23,14,08,16.20
2018,04,23,14,09,16.10
2018,04,23,14,10,16.10
2018,04,23,14,11,16.20
2018,04,23,14,12,16.30
2018,04,23,14,13,16.30
2018,04,23,14,14,16.40
2018,04,23,14,15,16.50
2018,04,23,14,16,16.50
2018,04,23,14,17,16.60
2018,04,23,14,18,16.60
2018,04,23,14,19,16.50
2018,04,23,14,20,16.50
2018,04,23,14,21,16.40
2018,04,23,14,22,16.50
2018,04,23,14,23,16.50
2018,04,23,14,24,16.70
2018,04,23,14,25,16.80
2018,04,23,14,26,16.80
2018,04,23,14,27,16.70
2018,04,23,14,28,16.70
2018,04,23,14,29,16.60
2018,04,23,14,30,16.40
2018,04,23,14,31,16.50
2018,04,23,14,32,16.50
2018,04,23,14,33,16.50
2018,04,23,14,34,16.50
2018,04,23,14,35,16.50
2018,04,23,14,36,16.50
2018,04,23,14,37,16.60
2018,04,23,14,38,16.60
2018,04,23,14,39,16.70
2018,04,23,14,40,16.80
2018,04,23,14,41,16.80
2018,04,23,14,42,16.80
2018,04,23,14,43,16.70
2018,04,23,14,44,16.70
2018,04,23,14,45,16.80
2018,04,23,14,46,16.80
2018,04,23,14,47,16.90
2018,04,23,14,48,16.80
2018,04,23,14,49,16.70
2018,04,23,14,50,16.70
2018,04,23,14,51,16.70
2018,04,23,14,52,16.70
2018,04,23,14,53,16.60
2018,04,23,14,54,16.50
2018,04,23,14,55,16.50
2018,04,23,14,56,16.50
2018,04,23,14,57,16.50
2018,04,23,14,58,16.30
2018,04,23,14,59,16.30
2018,04,23,15,00,16.40
2018,04,23,15,01,16.40
2018,04,23,15,02,16.40
2018,04,23,15,03,16.40
2018,04,23,15,04,16.40
2018,04,23,15,05,16.40
2018,04,23,15,06,16.30
2018,04,23,15,07,16.30
2018,04,23,15,08,16.40
2018,04,23,15,09,16.40
2018,04,23,15,10,16.50
2018,04,23,15,11,16.60
2018,04,23,15,12,16.60
2018,04,23,15,13,16.70
2018,04,23,15,14,16.70
2018,04,23,15,15,16.60
2018,04,23,15,16,16.60
2018,04,23,15,17,16.70
2018,04,23,15,18,16.70
2018,04,23,15,19,16.70
2018,04,23,15,20,16.80
2018,04,23,15,21,16.70
2018,04,23,15,22,16.70
2018,04,23,15,23,16.70
2018,04,23,15,24,16.70
2018,04,23,15,25,16.80
2018,04,23,15,26,16.80
2018,04,23,15,27,16.80
2018,04,23,15,28,16.80
2018,04,23,15,29,16.80
2018,04,23,15,30,16.70
2018,04,23,15,31,16.80
2018,04,23,15,32,16.80
2018,04,23,15,33,16.90
2018,04,23,15,34,16.90
2018,04,23,15,35,17.00
2018,04,23,15,36,17.10
2018,04,23,15,37,17.00
2018,04,23,15,38,16.90
2018,04,23,15,39,17.00
2018,04,23,15,40,17.00
2018,04,23,15,41,17.00
2018,04,23,15,42,17.00
2018,04,23,15,43,16.80
2018,04,23,15,44,16.70
2018,04,23,15,45,16.70
2018,04,23,15,46,16.70
2018,04,23,15,47,16.80
2018,04,23,15,48,16.80
2018,04,23,15,49,16.80
2018,04,23,15,50,16.70
2018,04,23,15,51,16.70
2018,04,23,15,52,16.70
2018,04,23,15,53,16.80
2018,04,23,15,54,16.80
2018,04,23,15,55,16.90
2018,04,23,15,56,16.90
2018,04,23,15,57,16.90
2018,04,23,15,58,16.90
2018,04,23,15,59,16.90
2018,04,23,16,00,16.90
2018,04,23,16,01,16.90
2018,04,23,16,02,17.00
2018,04,23,16,03,17.00
2018,04,23,16,04,17.00
2018,04,23,16,05,16.90
2018,04,23,16,06,16.90
2018,04,23,16,07,16.90
2018,04,23,16,08,16.80
2018,04,23,16,09,16.80
2018,04,23,16,10,16.80
2018,04,23,16,11,16.90
2018,04,23,16,12,16.90
2018,04,23,16,13,17.00
2018,04,23,16,14,17.10
2018,04,23,16,15,17.20
2018,04,23,16,16,17.20
2018,04,23,16,17,17.10
2018,04,23,16,18,17.20
2018,04,23,16,19,17.20
2018,04,23,16,20,17.20
2018,04,23,16,21,17.20
2018,04,23,16,22,17.20
2018,04,23,16,23,17.20
2018,04,23,16,24,17.20
2018,04,23,16,25,17.20
2018,04,23,16,26,17.20
2018,04,23,16,27,17.10
2018,04,23,16,28,17.10
2018,04,23,16,29,17.10
2018,04,23,16,30,17.10
2018,04,23,16,31,17.20
2018,04,23,16,32,17.20
2018,04,23,16,33,17.20
2018,04,23,16,34,17.20
2018,04,23,16,35,17.20
2018,04,23,16,36,17.20
2018,04,23,16,37,17.20
2018,04,23,16,38,17.20
2018,04,23,16,39,17.20
2018,04,23,16,40,17.20
2018,04,23,16,41,17.20
2018,04,23,16,42,17.20
2018,04,23,16,43,17.20
2018,04,23,16,44,17.20
2018,04,23,16,45,17.20
2018,04,23,16,46,17.20
2018,04,23,16,47,17.20
2018,04,23,16,48,17.20
2018,04,23,16,49,17.20
2018,04,23,16,50,17.20
2018,04,23,16,51,17.20
2018,04,23,16,52,17.30
2018,04,23,16,53,17.30
2018,04,23,16,54,17.40
2018,04,23,16,55,17.40
2018,04,23,16,56,17.40
2018,04,23,16,57,17.40
2018,04,23,16,58,17.40
2018,04,23,16,59,17.30
2018,04,23,17,00,17.30
2018,04,23,17,01,17.30
2018,04,23,17,02,17.40
2018,04,23,17,03,17.50
2018,04,23,17,04,17.60
2018,04,23,17,05,17.60
2018,04,23,17,06,17.60
2018,04,23,17,07,17.70
2018,04,23,17,08,17.80
2018,04,23,17,09,17.80
2018,04,23,17,10,17.80
2018,04,23,17,11,17.80
2018,04,23,17,12,17.80
2018,04,23,17,13,17.90
2018,04,23,17,14,18.00
2018,04,23,17,15,18.10
2018,04,23,17,16,18.20
2018,04,23,17,17,18.40
2018,04,23,17,18,18.40
2018,04,23,17,19,18.40
2018,04,23,17,20,18.30
2018,04,23,17,21,18.30
2018,04,23,17,22,18.30
2018,04,23,17,23,18.40
2018,04,23,17,24,18.40
2018,04,23,17,25,18.40
2018,04,23,17,26,18.30
2018,04,23,17,27,18.30
2018,04,23,17,28,18.30
2018,04,23,17,29,18.20
2018,04,23,17,30,18.10
2018,04,23,17,31,18.00
2018,04,23,17,32,18.00
2018,04,23,17,33,18.00
2018,04,23,17,34,18.00
2018,04,23,17,35,18.00
2018,04,23,17,36,18.00
2018,04,23,17,37,18.00
2018,04,23,17,38,18.00
2018,04,23,17,39,18.10
2018,04,23,17,40,18.10
2018,04,23,17,41,18.10
2018,04,23,17,42,18.20